Regional Weather Roundup
Issued by NWS Upton, NY

Current Version | Previous Version | Text Only | Print | Product List | Glossary On
Versions: 1 2 3 4 5 6 7 8 9 10 11 12 13 14 15 16 17 18 19 20 21 22 23 24 25 26 27 28 29 30 31 32 33 34 35 36 37 38 39 40 41 42 43 44 45 46 47 48 49 50
281 ASUS41 KOKX 291408 RWROKX REGIONAL WEATHER ROUNDUP NATIONAL WEATHER SERVICE NEW YORK NY 1000 AM EDT THU SEP 29 2016 NOTE: "FAIR" INDICATES FEW OR NO CLOUDS BELOW 12,000 FEET WITH NO SIGNIFICANT WEATHER AND/OR OBSTRUCTIONS TO VISIBILITY. NYZ071-072-176-178-NJZ106-104-291500- NEW YORK CITY METRO AREA CITY SKY/WX TMP DP RH WIND PRES REMARKS Central Park CLOUDY 60 52 74 E17G31 30.38R LaGuardia APRT CLOUDY 63 54 72 NE17 30.35R Kennedy INTL LGT RAIN 62 54 74 NE18 30.34R Newark/Liberty CLOUDY 62 54 74 NE20G28 30.33R Bronx Bot Gard N/A 59 50 72 NE10 30.38R Wall St Helipt CLOUDY 63 57 82 NE21G29 30.33R Teterboro CLOUDY 61 50 67 NE8 30.35R $$ NYZ177-179-078>081-291500- LONG ISLAND NEW YORK CITY SKY/WX TMP DP RH WIND PRES REMARKS Farmingdale CLOUDY 60 54 80 NE17G24 30.35R MacArthur/ISP CLOUDY 60 54 80 NE16G32 30.34F Shirley CLOUDY 59 53 80 VRB7 30.36R Riverhead NOT AVBL Westhampton CLOUDY 60 52 74 NE16G24 30.37R Southampton N/A 59 54 82 NE12 30.33S Bridgehampton N/A 59 54 82 E5 30.22F East Hampton CLOUDY 59 52 77 NE15G24 30.37S Montauk N/A 60 53 77 NE13G25 30.40R $$ NYZ052-065-067-291500- HUDSON VALLEY CITY SKY/WX TMP DP RH WIND PRES REMARKS White Plains PTSUNNY 58 50 75 NE13G23 30.35S Newburgh CLOUDY 57 52 82 E15 30.39R Montgomery CLOUDY 59 49 69 NE10 30.38R Poughkeepsie CLOUDY 58 48 69 NE10 30.38R Albany MOSUNNY 60 46 59 NE8 30.44R $$ NJZ001-105-106-008-010-013-015-019>022-104-291500- NEW JERSEY CITY SKY/WX TMP DP RH WIND PRES REMARKS Newark/Liberty CLOUDY 62 54 74 NE20G28 30.33R Teterboro CLOUDY 61 50 67 NE8 30.35R Caldwell CLOUDY 60 51 72 E13 30.35R Morristown CLOUDY 59 54 82 E10G18 30.36R Somerville CLOUDY 60 52 74 VRB7 30.31R Linden NOT AVBL Sussex CLOUDY 57 52 83 NE8G18 30.35R Abdover N/A 57 51 80 VRB5 30.35R Trenton CLOUDY 60 58 92 E14G25 30.29R FOG Millville CLOUDY 65 65 100 E16G24 30.24R Atlantic City CLOUDY 65 62 90 E25G38 30.24R Wrightstown CLOUDY 63 61 94 NE17G23 30.26R Toms River LGT RAIN 63 61 93 E14G22 30.30R Belmar LGT RAIN 63 59 87 E24G30 30.31R $$ PAZ047>061-062-071-291500- EASTERN PENNSYLVANIA CITY SKY/WX TMP DP RH WIND PRES REMARKS Philadelphia CLOUDY 64 61 90 E21G30 30.26R Allentown CLOUDY 58 53 84 E16G22 30.31R Scranton LGT RAIN 56 52 86 E10G21 30.30R $$ CTZ002-004>006-009-010-012-RIZ004-006-007-MAZ004-011-015-291500- SOUTHERN NEW ENGLAND IN CT CITY SKY/WX TMP DP RH WIND PRES REMARKS Bradley INTL PTSUNNY 60 45 57 NE17G23 30.45R Hartford MOSUNNY 60 47 61 N16G23 30.43R Danbury CLOUDY 56 48 74 NE12G22 30.39S Wtrbury/Oxford CLOUDY 55 45 67 NE13G22 30.40R Bridgeport CLOUDY 61 50 67 NE21G29 30.37S Meriden PTSUNNY 63 48 58 N10G17 30.41R New Haven CLOUDY 59 49 69 N16 30.38S Chester PTSUNNY 59 48 67 NE13G20 30.40R Groton PTSUNNY 64 50 60 NE15G23 30.39R Wilimantic MOSUNNY 61 47 59 NE17G24 30.43R IN RI CITY SKY/WX TMP DP RH WIND PRES REMARKS Providence CLOUDY 58 47 66 NE18G28 30.44R Block Island CLOUDY 58 52 80 NE21G30 30.39R Westerly CLOUDY 60 48 64 N15G25 30.41R IN MA CITY SKY/WX TMP DP RH WIND PRES REMARKS Boston CLOUDY 56 49 77 NE15G24 30.48R Worcester CLOUDY 50 43 77 NE12G24 30.47R Westfield MOSUNNY 58 45 62 NE14 30.46R Provincetown CLOUDY 58 52 80 NE17G29 30.45R Nantucket CLOUDY 60 54 80 NE21G31 30.39R $$ ANZ330-335-338-340-345-350-353-355-291500- COASTAL MARINE OBSERVATIONS STATION/POSITION TIME SKY/WX TEMP WIND PRES VSBY WAVE AIR SEA DIR/SP/G HT/PER (UTC) (F) (DEG/KT/KT) (MB) (MI) (FT/S) NY HARB ENTRANCE 1350 64 70 60/ 27/ 33 1025.6 9/ 8 20S FIRE ISLAND 1350 63 69 70/ 27/ 33 1025.3 10/ 8 GREAT SOUTH BAY 1315 62 67 30/ 19/ 25 N/A 23 SSW MONTAUK P 1350 61 65 40/ 25/ 31 1027.5 9/ 7 15 E BARNEGAT LI 1330 70 N/A 11/ 8 HUDSON CANYON 1250 66 69 1024.1 9/ 8 KINGS POINT 1336 60 71 1027.1 EXECUTION ROCKS 1345 62 60/ 23/ 29 N/A CENTRAL LI SOUND 1315 60 71 70/ 19/ 23 N/A 3/ 4 EASTERN LI SOUND NOT AVBL ROBBINS REEF 1342 61 60/ 19/ 24 1027.0 $$ >>>>>>>>>>>>>>>>>>>>>>>>>>>> KEY <<<<<<<<<<<<<<<<<<<<<<<<<<< > < > SKY/WX - Sky Condition/Present Weather < > TMP - Temperature in Fahrenheit < > DP - Dew Point in Fahrenheit < > RH - Relative Humidity in Percent < > WIND - Direction (from) and Speed in MPH < > PRES - Mean Sea Level Pressure (inches of Hg) < > WCI - Wind Chill Index < > VSB - VISIBILITY IN MILES < > HX - HEAT INDEX < > TC - TEMPERATURE IN CELSIUS < > VRB - VARIABLE WIND DIRECTION < > < >>>>>>>>>>>>>>>>>>>>>>>>>>>> KEY <<<<<<<<<<<<<<<<<<<<<<<<<<<

USA.gov is the U.S. government's official web portal to all federal, state and local government web resources and services.